FW3684 Weather Reports


time (UTC)temp
C
wind
direction
speed
KPH
gust
KPH
rain 1hr
cm
rain 24hr
cm
rain mn
cm
humidity
%
barometer
mb
20260504202504 25 266 9.7 20.9 0.00 0.00 0.00 39 1014.9
20260504202004 25 189 12.9 20.9 0.00 0.00 0.00 39 1014.8
20260504201505 25 299 3.2 9.7 0.00 0.00 0.00 38 1015.0
20260504201003 25 60 1.6 22.5 0.00 0.00 0.00 37 1015.0
20260504200601 25 143 1.6 22.5 0.00 0.00 0.00 39 1015.2
20260504195559 25 263 4.8 16.1 0.00 0.00 0.00 37 1015.4
20260504195058 23 150 6.4 19.3 0.00 0.00 0.00 38 1015.4
20260504194600 24 274 9.7 19.3 0.00 0.00 0.00 37 1015.4
20260504194057 23 266 9.7 22.5 0.00 0.00 0.00 38 1015.4
20260504193559 23 215 9.7 22.5 0.00 0.00 0.00 37 1015.6
20260504193101 24 136 6.4 19.3 0.00 0.00 0.00 37 1015.6
20260504192555 24 226 3.2 14.5 0.00 0.00 0.00 34 1015.7
20260504191601 23 262 1.6 17.7 0.00 0.00 0.00 35 1015.8
20260504191055 24 271 6.4 17.7 0.00 0.00 0.00 36 1016.0
20260504190555 24 150 4.8 12.9 0.00 0.00 0.00 34 1016.0
20260504190054 24 132 1.6 12.9 0.00 0.00 0.00 37 1016.1
20260504185552 24 259 3.2 12.9 0.00 0.00 0.00 38 1016.2
20260504185051 23 284 1.6 20.9 0.00 0.00 0.00 36 1016.2
20260504184551 23 236 6.4 20.9 0.00 0.00 0.00 38 1016.4
20260504184051 23 274 8.0 17.7 0.00 0.00 0.00 39 1016.3
20260504183550 23 234 1.6 24.1 0.00 0.00 0.00 37 1016.4
20260504183050 23 252 1.6 12.9 0.00 0.00 0.00 39 1016.5
20260504182549 23 70 4.8 16.1 0.00 0.00 0.00 40 1016.5
20260504181549 23 234 8.0 16.1 0.00 0.00 0.00 38 1016.6
20260504181046 23 188 1.6 19.3 0.00 0.00 0.00 42 1016.6
20260504180547 23 252 9.7 19.3 0.00 0.00 0.00 37 1016.8
20260504180049 23 213 1.6 17.7 0.00 0.00 0.00 40 1016.8
20260504175544 22 198 8.0 19.3 0.00 0.00 0.00 39 1016.9
20260504175043 23 278 6.4 19.3 0.00 0.00 0.00 37 1017.0
20260504174545 23 229 1.6 4.8 0.00 0.00 0.00 38 1017.0
20260504174042 22 31 1.6 17.7 0.00 0.00 0.00 36 1017.1
20260504173541 23 231 8.0 17.7 0.00 0.00 0.00 38 1017.1
20260504173042 23 227 3.2 11.3 0.00 0.00 0.00 37 1017.2
20260504172541 23 300 1.6 14.5 0.00 0.00 0.00 36 1017.1
20260504171543 23 227 4.8 14.5 0.00 0.00 0.00 38 1017.2
20260504171041 23 254 6.4 12.9 0.00 0.00 0.00 39 1017.1
20260504170542 23 14 0.0 6.4 0.00 0.00 0.00 40 1017.1
20260504151020 18 100 4.8 19.3 0.00 0.00 0.00 42 1019.7
20260504150521 19 270 8.0 19.3 0.00 0.00 0.00 43 1019.8
20260504141018 18 25 0.0 4.8 0.00 0.00 0.00 48 1019.5
20260504140515 18 150 0.0 9.7 0.00 0.00 0.00 50 1019.4
20260504130504 13 215 4.8 11.3 0.00 0.00 0.00 68 1019.3
20260504110542 4 271 0.0 4.8 0.00 0.00 0.00 90 1019.1
20260504100535 3 70 0.0 6.4 0.00 0.00 0.00 91 1019.6
20260504081530 3 116 0.0 4.8 0.00 0.00 0.00 91 1019.4
20260504081031 3 82 0.0 4.8 0.00 0.00 0.00 90 1019.5
20260504080528 3 83 3.2 4.8 0.00 0.00 0.00 89 1019.3
20260504050513 4 34 1.6 4.8 0.00 0.00 0.00 85 1019.9
20260504050010 5 72 0.0 6.4 0.00 0.00 0.00 84 1020.0
20260504045510 5 68 3.2 6.4 0.00 0.00 0.00 84 1019.9
20260504045011 4 28 1.6 4.8 0.00 0.00 0.00 85 1020.0
20260504044509 4 68 3.2 4.8 0.00 0.00 0.00 85 1019.8
20260504044010 5 79 0.0 4.8 0.00 0.00 0.00 83 1019.9
20260504043506 5 42 1.6 4.8 0.00 0.00 0.00 84 1019.6
20260504043005 5 26 1.6 4.8 0.00 0.00 0.00 84 1019.7
20260504042504 5 84 0.0 3.2 0.00 0.00 0.00 84 1019.7
20260504041505 5 4 0.0 4.8 0.00 0.00 0.00 82 1019.6
20260504041003 5 5 1.6 4.8 0.00 0.00 0.00 81 1019.7
20260504040503 5 55 1.6 4.8 0.00 0.00 0.00 81 1019.9
20260504040008 5 46 1.6 4.8 0.00 0.00 0.00 82 1019.7
20260504035504 5 27 1.6 4.8 0.00 0.00 0.00 81 1019.7
20260504035005 5 34 1.6 4.8 0.00 0.00 0.00 81 1019.5
20260504034501 5 51 0.0 4.8 0.00 0.00 0.00 81 1019.4
20260504034001 6 70 1.6 4.8 0.00 0.00 0.00 80 1019.4
20260504033502 6 69 1.6 6.4 0.00 0.00 0.00 79 1019.4
20260504033002 6 31 4.8 6.4 0.00 0.00 0.00 79 1019.5
20260504032602 6 49 1.6 3.2 0.00 0.00 0.00 78 1019.5
20260504031501 6 93 0.0 4.8 0.00 0.00 0.00 79 1019.5
20260504031100 6 92 1.6 4.8 0.00 0.00 0.00 77 1019.5
20260504030502 6 60 3.2 6.4 0.00 0.00 0.00 77 1019.6
20260504030002 6 21 1.6 6.4 0.00 0.00 0.00 77 1019.8
20260504025600 6 45 3.2 4.8 0.00 0.00 0.00 77 1019.6
20260504025101 6 83 0.0 8.0 0.00 0.00 0.00 77 1019.6
20260504024601 7 103 0.0 8.0 0.00 0.00 0.00 76 1019.6
20260504024200 7 351 0.0 4.8 0.00 0.00 0.00 77 1019.7
20260504023559 7 123 0.0 4.8 0.00 0.00 0.00 75 1019.7
20260504023103 7 34 0.0 4.8 0.00 0.00 0.00 74 1019.8
20260504022600 7 132 0.0 4.8 0.00 0.00 0.00 75 1019.6
20260504021600 7 35 1.6 9.7 0.00 0.00 0.00 72 1019.6
20260504021059 7 80 1.6 3.2 0.00 0.00 0.00 73 1019.5
20260504020602 7 133 0.0 3.2 0.00 0.00 0.00 73 1019.6
20260504015600 8 12 0.0 3.2 0.00 0.00 0.00 71 1019.4
20260504015059 8 12 0.0 3.2 0.00 0.00 0.00 69 1019.2
20260504014607 8 84 0.0 1.6 0.00 0.00 0.00 70 1019.1
20260504014059 8 67 0.0 3.2 0.00 0.00 0.00 69 1019.1
20260504013558 8 84 1.6 3.2 0.00 0.00 0.00 69 1018.9
20260504013108 8 65 0.0 4.8 0.00 0.00 0.00 69 1018.8
20260504012600 9 28 1.6 4.8 0.00 0.00 0.00 68 1018.9
20260504011559 9 77 0.0 3.2 0.00 0.00 0.00 67 1018.7
20260504011058 10 62 0.0 4.8 0.00 0.00 0.00 65 1018.7
20260504010559 10 35 3.2 4.8 0.00 0.00 0.00 64 1018.6
20260504010058 10 89 1.6 3.2 0.00 0.00 0.00 64 1018.5
20260504005559 10 27 0.0 3.2 0.00 0.00 0.00 61 1018.5
20260504005102 11 27 0.0 3.2 0.00 0.00 0.00 60 1018.4
20260504004558 11 70 0.0 3.2 0.00 0.00 0.00 59 1018.3
20260504004056 11 353 0.0 1.6 0.00 0.00 0.00 57 1018.3
20260504003557 12 349 0.0 1.6 0.00 0.00 0.00 55 1018.4
20260504003103 12 346 0.0 1.6 0.00 0.00 0.00 56 1018.2
20260504002557 12 346 0.0 1.6 0.00 0.00 0.00 54 1018.1
20260504001607 13 346 0.0 4.8 0.00 0.00 0.00 53 1017.8
20260504001056 13 91 0.0 3.2 0.00 0.00 0.00 52 1017.7
20260504000556 14 91 0.0 3.2 0.00 0.00 0.00 48 1017.7
20260504000122 15 278 0.0 3.2 0.00 0.00 0.00 40 1017.6
20260503235555 15 200 0.0 3.2 0.00 0.00 0.00 45 1017.6
20260503235055 15 234 0.0 1.6 0.00 0.00 0.00 42 1017.6
20260503234556 16 326 0.0 1.6 0.00 0.00 0.00 44 1017.5
20260503234055 16 333 0.0 1.6 0.00 0.00 0.00 41 1017.6
20260503233557 17 333 0.0 1.6 0.00 0.00 0.00 38 1017.4
20260503233055 17 276 0.0 6.4 0.00 0.00 0.00 33 1017.4
20260503232554 18 335 3.2 8.0 0.00 0.00 0.00 31 1017.4
20260503231555 18 273 1.6 9.7 0.00 0.00 0.00 32 1017.4
20260503231055 19 202 3.2 8.0 0.00 0.00 0.00 29 1017.3
20260503230556 20 229 0.0 4.8 0.00 0.00 0.00 32 1017.4
20260503225555 20 263 3.2 8.0 0.00 0.00 0.00 28 1017.3
20260503225054 20 196 0.0 3.2 0.00 0.00 0.00 31 1017.4
20260503224555 20 309 0.0 9.7 0.00 0.00 0.00 27 1017.4
20260503224054 19 224 3.2 9.7 0.00 0.00 0.00 28 1017.5
20260503223555 19 226 4.8 9.7 0.00 0.00 0.00 27 1017.4
20260503223054 20 297 3.2 9.7 0.00 0.00 0.00 24 1017.4
20260503222555 20 267 3.2 8.0 0.00 0.00 0.00 24 1017.5
20260503221557 20 255 4.8 12.9 0.00 0.00 0.00 24 1017.4
20260503221053 19 341 3.2 20.9 0.00 0.00 0.00 22 1017.5
20260503220553 19 260 6.4 20.9 0.00 0.00 0.00 21 1017.5
20260503220052 19 22 4.8 22.5 0.00 0.00 0.00 21 1017.6
20260503215551 19 255 8.0 22.5 0.00 0.00 0.00 21 1017.6
20260503215050 20 214 8.0 17.7 0.00 0.00 0.00 21 1017.6
20260503214549 20 310 1.6 11.3 0.00 0.00 0.00 27 1017.7
20260503214049 20 266 1.6 14.5 0.00 0.00 0.00 25 1017.7
20260503213548 19 143 4.8 20.9 0.00 0.00 0.00 24 1017.6
20260503213047 19 259 3.2 19.3 0.00 0.00 0.00 25 1017.7
20260503212548 19 273 3.2 11.3 0.00 0.00 0.00 34 1017.8
20260503211546 19 32 4.8 17.7 0.00 0.00 0.00 35 1017.9
20260503211044 18 221 4.8 20.9 0.00 0.00 0.00 36 1018.1
20260503210545 19 278 8.0 20.9 0.00 0.00 0.00 38 1018.1
20260503210044 19 149 3.2 20.9 0.00 0.00 0.00 38 1018.1
20260503205544 19 282 3.2 16.1 0.00 0.00 0.00 37 1018.1
20260503205045 19 258 6.4 22.5 0.00 0.00 0.00 37 1018.2
20260503204544 19 264 8.0 22.5 0.00 0.00 0.00 36 1018.3
20260503204042 19 162 0.0 11.3 0.00 0.00 0.00 35 1018.3
20260503203545 18 252 1.6 24.1 0.00 0.00 0.00 34 1018.3
20260503203043 19 236 8.0 24.1 0.00 0.00 0.00 35 1018.3